Location: Beddau
(51.5575°N, 3.3561°W)
Time: 02:52:35
(UTC+00:00)

CZ-4B R/B - Pass Details

Date: 03 March 2021
Orbit: 388 x 455 km, 97.6° (Epoch: 13 April)

Event Time Altitude Azimuth Distance (km) Brightness Sun altitude
Rises 18:39:12 0° 13° (NNE) 2,295 4.8 -7.3°
Reaches altitude 10° 18:41:10 10° 13° (NNE) 1,436 3.8 -7.6°
Maximum altitude 18:44:13 83° 286° (WNW) 402 1.2 -8.0°
Drops below altitude 10° 18:47:16 10° 197° (SSW) 1,437 4.2 -8.5°
Sets 18:49:15 0° 197° (SSW) 2,298 5.2 -8.8°
